User: anonymous   Login
Location: Caltech
(34.1382°N, 118.1253°W)
Time: 07:27:19
(UTC-07:00)
Language:

Cosmos 1408 Rocket - Orbit

View from above orbital plane
View from above orbital plane
View from above satellite
View from above satellite

Ground track
Ground track

The orbit data is extracted from the following two-line orbital elements,

1 13553U 82092B   17204.95627770 +.00000059 +00000-0 +41783-5 0  9997
2 13553 082.5675 199.8227 0019837 284.5011 104.5235 14.84127661861408
Epoch (UTC): 23 July 2017 22:57:02
Eccentricity: 0.0019837
inclination: 82.5675°
perigee height: 602 km
apogee height: 630 km
right ascension of ascending node: 199.8227°
argument of perigee: 284.5011°
revolutions per day: 14.84127661
mean anomaly at epoch: 104.5235°
orbit number at epoch: 86140

The dashed part of the orbit path shows where the satellite is in the earth's shadow,  

DLR